Weather History for Louisville, KY

Change the Weather History Date:

Monday, December 16, 2013

  Actual Average Record
Temperature  
Mean Temperature 39 °F 38 °F  
Max Temperature 46 °F 45 °F 70 °F (1984)
Min Temperature 32 °F 30 °F -4 °F (1989)
Degree Days  
Heating Degree Days 26 28  
Month to date heating degree days 441 407  
Since 1 July heating degree days 1271 1142  
Cooling Degree Days 0 0  
Month to date cooling degree days 0 0  
Year to date cooling degree days 1628 1613  
Moisture  
Dew Point 30 °F    
Average Humidity 71    
Maximum Humidity 82    
Minimum Humidity 60    
Precipitation  
Precipitation 0.00 in 0.12 in 3.63 in (1915)
Month to date precipitation 2.12 1.99  
Year to date precipitation 50.29 43.07  
Snow  
Snow 0.00 in 0.10 in 0.50 in (2008)
Month to date snowfall 5.3 1.1  
Since 1 July snowfall 5.8 1.3  
Snow Depth 0.00 in    
Sea Level Pressure  
Sea Level Pressure 30.09 in    
Wind  
Wind Speed 6 mph (SSW)    
Max Wind Speed 13 mph    
Max Gust Speed 17 mph    
Visibility 9 miles    
Events      
T = Trace of Precipitation, MM = Missing Value Source: NWS Daily Summary

Daily Weather History Graph

Daily Weather History Graph

Search for Another Location

Airport:

Trip Planner

Search our weather history database for the weather conditions in past years. The results will help you decide how hot, cold, wet, or windy it might be!

Date:

Astronomy

Dec. 16, 2013 Rise Set
Actual Time 7:53 AM EST 5:24 PM EST
Civil Twilight 7:23 AM EST 5:54 PM EST
Nautical Twilight 6:50 AM EST 6:27 PM EST
Astronomical Twilight 6:18 AM EST 6:59 PM EST
Moon 5:13 PM EST (12/16) 7:01 AM EST (12/16)
Length of Visible Light 10h 30m
Length of Day
9h 31m
Full, 100% of the Moon is Illuminated
Dec 16
Full
Dec 17
Full
Dec 25
Last Quarter
Jan 1
New
Jan 7
First Quarter

Hourly Weather History & Observations

Time (EST) Temp. Windchill Dew Point Humidity Pressure Visibility Wind Dir Wind Speed Gust Speed Precip Events Conditions
12:16 AM 32.0 °F 23.6 °F 26.6 °F 80% 30.15 in 9.0 mi SW 10.4 mph - N/A   Overcast
12:56 AM 32.0 °F 24.2 °F 27.0 °F 82% 30.16 in 9.0 mi SW 9.2 mph - N/A   Overcast
1:56 AM 32.0 °F 23.6 °F 27.0 °F 82% 30.15 in 8.0 mi WSW 10.4 mph - N/A   Overcast
2:56 AM 33.1 °F 27.7 °F 27.0 °F 78% 30.14 in 8.0 mi SSW 5.8 mph - N/A   Overcast
3:56 AM 33.1 °F 27.7 °F 27.0 °F 78% 30.14 in 9.0 mi SSW 5.8 mph - N/A   Overcast
4:56 AM 33.1 °F 27.7 °F 28.0 °F 82% 30.12 in 8.0 mi South 5.8 mph - N/A   Overcast
5:56 AM 33.1 °F 26.9 °F 28.0 °F 82% 30.10 in 8.0 mi South 6.9 mph - N/A   Overcast
6:36 AM 33.8 °F 27.0 °F 28.4 °F 81% 30.08 in 8.0 mi South 8.1 mph - N/A   Overcast
6:56 AM 33.1 °F 27.7 °F 28.0 °F 82% 30.11 in 8.0 mi South 5.8 mph - N/A   Overcast
7:56 AM 34.0 °F 28.8 °F 28.0 °F 79% 30.12 in 8.0 mi South 5.8 mph - N/A   Overcast
8:04 AM 33.8 °F 29.6 °F 28.4 °F 81% 30.11 in 8.0 mi South 4.6 mph - N/A   Overcast
8:18 AM 33.8 °F 28.6 °F 28.4 °F 81% 30.11 in 7.0 mi South 5.8 mph - N/A   Overcast
8:56 AM 34.0 °F 27.2 °F 28.9 °F 82% 30.12 in 7.0 mi South 8.1 mph - N/A   Overcast
9:56 AM 35.1 °F 30.1 °F 28.9 °F 78% 30.12 in 7.0 mi South 5.8 mph - N/A   Overcast
10:56 AM 37.9 °F 32.1 °F 30.0 °F 73% 30.11 in 8.0 mi South 8.1 mph - N/A   Mostly Cloudy
11:56 AM 41.0 °F 35.2 °F 32.0 °F 70% 30.09 in 8.0 mi SW 9.2 mph - N/A   Overcast
12:56 PM 42.1 °F 35.7 °F 32.0 °F 67% 30.06 in 9.0 mi SW 11.5 mph - N/A   Overcast
1:09 PM 42.8 °F 38.0 °F 32.0 °F 66% 30.04 in 9.0 mi SW 8.1 mph - N/A   Overcast
1:56 PM 44.1 °F 38.6 °F 33.1 °F 65% 30.04 in 9.0 mi SW 10.4 mph - N/A   Mostly Cloudy
2:35 PM 44.6 °F 39.2 °F 33.8 °F 66% 30.02 in 10.0 mi SSW 10.4 mph - N/A   Scattered Clouds
2:56 PM 45.0 °F 40.6 °F 33.1 °F 63% 30.03 in 10.0 mi SW 8.1 mph - N/A   Scattered Clouds
3:56 PM 46.0 °F 41.9 °F 33.1 °F 61% 30.03 in 10.0 mi SW 8.1 mph - N/A   Scattered Clouds
4:56 PM 45.0 °F 40.6 °F 33.1 °F 63% 30.04 in 10.0 mi SW 8.1 mph - N/A   Partly Cloudy
5:56 PM 44.1 °F - 32.0 °F 63% 30.05 in 10.0 mi Calm Calm - N/A   Partly Cloudy
6:56 PM 43.0 °F 41.3 °F 32.0 °F 65% 30.06 in 10.0 mi SSW 3.5 mph - N/A   Clear
7:56 PM 41.0 °F 38.0 °F 33.1 °F 73% 30.06 in 10.0 mi South 4.6 mph - N/A   Partly Cloudy
8:56 PM 39.0 °F 36.8 °F 32.0 °F 76% 30.06 in 10.0 mi South 3.5 mph - N/A   Scattered Clouds
9:56 PM 39.0 °F - 32.0 °F 76% 30.05 in 10.0 mi Calm Calm - N/A   Clear
10:56 PM 37.9 °F - 32.0 °F 79% 30.06 in 10.0 mi Calm Calm - N/A   Overcast
11:56 PM 37.9 °F - 32.0 °F 79% 30.04 in 10.0 mi Calm Calm - N/A   Overcast